#timestamp,LO_Frequency,Hit,StdDev 
1513116015.4,286047002.6,N
1513116035.2,286046998.9,N
1513116055.0,286046996.9,N
1513116055.9,286046996.9,N
1513116075.8,286046995.3,N
1513116095.6,286046996.5,N
1513116115.4,286046994.9,N
1513116135.2,286046998.7,N
1513116155.1,286046999.3,N
1513116156.0,286046999.3,N
1513116175.8,286046999.4,N
1513116195.6,286047004.4,N
1513116215.5,286047001.3,N
1513116235.3,286047001.6,N
1513116255.1,286047003.9,N
1513116275.9,286047001.7,N
1513116295.7,286046998.8,N
1513116315.5,286046997.4,N
1513116335.4,286047000.1,N
1513116355.2,286047002.2,N
1513116375.0,286047003.4,N
1513116375.9,286047003.4,N
1513116395.8,286047003.0,N
1513116415.6,286047005.6,N
1513116435.4,286047007.3,N
1513116455.2,286047003.3,N
1513116475.1,286047004.2,N
1513116476.0,286047004.2,N
1513116495.8,286047003.5,N
1513116515.6,286047001.3,N
1513116535.5,286047005.5,N
1513116555.3,286047003.7,N
1513116575.1,286047003.4,N
1513116595.9,286047004.7,N
1513116615.7,286047005.7,N
1513116635.5,286047004.2,N
1513116655.4,286047005.4,N
1513116675.2,286047003.9,N
1513116695.0,286047004.8,N
1513116695.9,286047004.8,N
1513116715.8,286047005.9,N
1513116735.6,286047010.7,Y
1513116755.4,286047008.8,P
1513116775.3,286047009.9,P
1513116795.1,286047014.2,P
1513116796.0,286047014.2,Y
1513116815.8,286047004.5,P
1513116835.7,286047005.4,N
1513116855.5,286047008.4,P
1513116875.3,286047017.2,Y
1513116895.2,286047008.6,P
1513116915.9,286047007.4,P
1513116935.7,286047008.6,P
1513116955.6,286047010.5,Y
1513116975.4,286046996.6,P
1513116995.2,286047000.5,N
1513117015.1,286047003.3,N
1513117016.0,286047003.3,N
1513117035.8,286047007.1,N
1513117055.6,286047004.0,N
1513117075.5,286047004.3,N
1513117095.3,286047001.0,N
1513117115.1,286047004.4,N
1513117135.9,286047009.0,N
1513117155.7,286047009.6,N
1513117175.5,286047006.2,N
1513117195.3,286047006.2,N
1513117215.2,286047005.6,N
1513117235.0,286047005.9,N
1513117235.9,286047005.9,N
1513117255.7,286047005.9,N
1513117275.6,286047009.1,N
1513117295.4,286047007.7,N
1513117315.2,286047004.9,N
1513117335.1,286047001.7,N
1513117336.0,286047001.7,N
1513117355.8,286047005.3,N
1513117375.6,286047004.0,N
1513117395.5,286047003.2,N
1513117415.3,286047001.8,N
1513117435.1,286047003.8,N
1513117455.9,286047004.4,N
1513117475.7,286047007.1,N
1513117495.5,286047007.2,N
1513117515.3,286047004.9,N
1513117535.2,286047009.1,Y
1513117555.0,286047007.1,P
1513117555.9,286047007.1,P
1513117575.8,286047006.7,P
1513117595.6,286047000.2,N
1513117615.4,286047002.1,N
1513117635.2,286047003.3,N
1513117655.1,286047000.4,N
1513117656.0,286047000.4,N
1513117675.8,286046999.6,N
1513117695.6,286046994.5,N
1513117715.5,286046991.9,N
1513117735.3,286046992.0,N
1513117755.1,286046992.9,N
1513117775.9,286046988.6,N
1513117795.7,286046987.0,N
1513117815.5,286046983.8,N
1513117835.4,286046986.3,N
1513117855.2,286046983.8,N
1513117875.0,286046986.4,N
1513117875.9,286046986.4,N
1513117895.8,286046987.2,N
1513117915.6,286046991.6,N
1513117935.4,286046989.5,N
1513117955.2,286046985.9,N
1513117975.1,286046986.3,N
1513117976.0,286046986.3,N
1513117995.8,286046985.9,N
1513118015.6,286046986.3,N
1513118035.5,286046987.3,N
1513118055.3,286046984.9,N
1513118075.1,286046982.5,N
1513118095.9,286046984.2,N
1513118115.7,286046980.9,N
1513118135.5,286046981.1,Y
1513118155.4,286046994.0,P
1513118175.2,286046991.1,P
1513118195.0,286046990.4,P
1513118195.9,286046990.4,Y
1513118215.8,286047000.2,P
1513118235.6,286047000.7,N
1513118255.4,286047002.6,N
1513118275.3,286047006.2,N
1513118295.1,286047007.9,N
1513118296.0,286047007.9,N
1513118315.8,286047008.5,N
1513118335.7,286047004.9,N
1513118355.5,286047006.2,N
1513118375.3,286047006.9,N
1513118395.2,286047009.0,N
1513118415.9,286047012.4,N
1513118435.7,286047007.2,N
1513118455.5,286047007.1,N
1513118475.4,286047007.2,N
1513118495.2,286047004.8,N
1513118515.0,286047003.8,N
1513118515.9,286047003.8,N
1513118535.8,286046999.7,N
1513118555.6,286047002.1,N
1513118575.4,286047003.1,N
1513118595.3,286047006.7,N
1513118615.1,286047010.7,N
1513118616.0,286047010.7,N
1513118635.8,286047012.3,N
1513118655.7,286047013.1,N
1513118675.5,286047015.5,Y
1513118695.3,286047002.9,P
1513118715.2,286047003.3,N
1513118735.9,286047009.0,P
1513118755.7,286047006.5,N
1513118775.6,286047008.4,Y
1513118795.4,286047001.9,P
1513118815.2,286047004.4,N
1513118835.1,286047000.6,N
1513118836.0,286047000.6,N
1513118855.8,286046999.4,N
1513118875.6,286047002.4,N
1513118895.5,286047001.7,N
1513118915.3,286046999.5,N
1513118935.1,286047000.6,N
1513118955.8,286047004.1,N
1513118975.7,286047006.8,Y
1513118995.5,286046998.5,P
1513119015.3,286047001.2,N
1513119035.2,286046999.4,N
1513119055.0,286046994.4,Y
1513119055.9,286046994.4,P
1513119075.8,286046993.5,N
1513119095.6,286046996.6,N
1513119115.4,286047000.7,N
1513119135.2,286047006.0,N
1513119155.1,286047010.7,N
1513119156.0,286047010.7,N
1513119175.8,286047011.0,N
1513119195.6,286047016.0,N
1513119215.5,286047019.8,N
1513119235.3,286047021.9,N
1513119255.1,286047023.4,N
1513119275.9,286047022.4,N
1513119295.7,286047028.0,N
1513119315.5,286047026.7,N
1513119335.4,286047026.5,N
1513119355.2,286047029.7,N
1513119375.0,286047028.5,N
1513119375.9,286047028.5,N
1513119395.8,286047031.5,N
1513119415.6,286047029.0,N
1513119435.4,286047031.4,N
1513119455.2,286047028.9,N
1513119475.1,286047031.3,N
1513119476.0,286047031.3,N
1513119495.8,286047029.2,N
1513119515.6,286047032.9,N
1513119535.5,286047031.4,N
1513119555.3,286047030.0,N
1513119575.1,286047030.4,N
1513119595.9,286047031.3,N
